Showing default

UNISAT 7, 47945

Orbit data source: Space-Track

UNISAT 7, 47945 is a payload satellite owned by GAUSS SrI (IT) in SSO that was launched on Mon, 22 Mar 2021 UTC via a SOYUZ-2-1A launch vehicle from the Tyuratam Missile And Space Complex (TTMTR). Payload-class satellites include a variety of spacecraft equipped with specific instruments for various scientific and technological missions. These include communications satellites like Starlink; space stations such as the ISS; scientific satellites like the Hubble; Earth observation satellites from companies like Planet Labs, Umbra, and HawkEye 360; GPS; miniature CubeSats for education and research; and military/defense satellites.

Loading next visibility...
Identifier
47945, 2021-022P
Orbit
SSO
Country
Flag of ITIT
Related business
Manufacturer
GAUSS SrI
Mission
Operational Commercial Technology
Bus & Motor
UNISAT, Unknown motor
Mass
32 kg wet, ~19 kg dry
Launch date (UTC)
2021-03-22 (5 years ago)
Launch vehicle
SOYUZ-2-1A
Launch site
Tyuratam Missile And Space Complex (TTMTR)
Object type
Payload
Rocket body
Debris
Shape & HBR
Oct Cyl, 0.5 m
Radar Cross Section
0.280 m², Medium (>0.1 m² and < 1m²)

Expand to show TLE details & history
Last TLE update: 22 hours ago

TLE from 22 hours ago
0 UNISAT 7
1 47945U 21022P   25348.67684858  .00012971  00000-0  38750-3 0  9996
2 47945  97.4038 247.2591 0011392  26.6618 333.5209 15.34666276261502
Epoch: 2025-12-14T16:14Z
TLE epoch observation values (Epoch: 2025-12-14T16:14:39.717Z)
Latitude
0.00003°
Longitude
-79.99273°
Altitude
458.048 km
Speed
7.642 km/s
True Right ascension
16h 29m 02s
True Declination
0° 00' 00"
Sunlit
Object was in daylight at epoch
Visualization orbit readout
Latitude
Unknown
Longitude
Unknown
Altitude
Unknown
Speed
Unknown
Apparent Right ascension
Unknown
Apparent Declination
Unknown
Sunlit
N/A
Visualization observer readout
Local Sidereal Time
13:20:32
Azimuth
Unknown
Elevation
Unknown
Doppler factor
Unknown
Orbital elements
Apogee altitude
466.647 km
Perigee altitude
451.069 km
Semi-major axis
6,836.995 km
Eccentricity
0.00114
Inclination
97.4038°
RAAN
247.2591°
Arg. of periapsis
26.6618°
True anomaly
333.46262°
Mean anomaly
333.5209°
Eccentric anomaly
333.49177°
Mean motion
3.83924 °/min
Orbital period
93.77 mins
BSTAR
0.0003875
Loading maneuver chart data...
Computing Atmospheric mass density...
Loading historical data...
Loading historical data...
Loading historical data...
Loading historical data...
Loading historical data...
Loading historical data...
Loading historical data...

Documentation

Showing up to 5 results
|